EW9008 Weather Reports


Display with metric or nautical units.
time (UTC)temp
F
wind
direction
speed
MPH
gust
MPH
rain 1hr
in
rain 24hr
in
rain mn
in
humidity
%
barometer
mb
20260505014053 69 173 0.0 0.0 0.00 0.00 0.00 42 1012.1
20260505013550 70 173 0.0 0.0 0.00 0.00 0.00 42 1012.1
20260505013102 70 173 0.0 0.0 0.00 0.00 0.00 42 1012.0
20260505012550 70 173 0.0 0.0 0.00 0.00 0.00 42 1012.0
20260505012050 71 173 0.0 0.0 0.00 0.00 0.00 41 1011.9
20260505011551 71 173 0.0 0.0 0.00 0.00 0.00 40 1011.9
20260505011050 71 173 0.0 0.0 0.00 0.00 0.00 38 1011.9
20260505010549 71 173 0.0 0.0 0.00 0.00 0.00 38 1011.9
20260505010100 72 173 0.0 0.0 0.00 0.00 0.00 37 1011.7
20260505005549 72 173 0.0 0.0 0.00 0.00 0.00 37 1011.7
20260505005049 72 173 0.0 0.0 0.00 0.00 0.00 37 1011.6
20260505004550 72 173 0.0 0.0 0.00 0.00 0.00 37 1011.6
20260505004048 73 173 0.0 0.0 0.00 0.00 0.00 36 1011.6
20260505003551 73 173 0.0 0.0 0.00 0.00 0.00 36 1011.5
20260505003048 73 173 0.0 0.0 0.00 0.00 0.00 36 1011.5
20260505002548 73 173 0.0 0.0 0.00 0.00 0.00 36 1011.4
20260505002048 74 173 0.0 0.0 0.00 0.00 0.00 36 1011.4
20260505001548 74 173 0.0 0.0 0.00 0.00 0.00 35 1011.4
20260505001050 74 173 0.0 0.0 0.00 0.00 0.00 35 1011.4
20260505000547 74 159 0.0 0.0 0.00 0.00 0.00 36 1011.4
20260505000057 75 159 0.0 0.0 0.00 0.00 0.00 35 1011.3
20260504235547 75 159 0.0 0.0 0.00 0.00 0.00 35 1011.3
20260504235047 75 182 0.0 0.0 0.00 0.00 0.00 34 1011.2
20260504234548 75 182 0.0 0.0 0.00 0.00 0.00 33 1011.1
20260504234048 75 188 0.0 0.0 0.00 0.00 0.00 32 1011.0
20260504233546 75 188 0.0 0.0 0.00 0.00 0.00 32 1011.0
20260504233050 76 188 0.0 0.0 0.00 0.00 0.00 31 1010.9
20260504232549 76 188 0.0 0.0 0.00 0.00 0.00 31 1010.9
20260504232046 76 71 0.0 0.0 0.00 0.00 0.00 31 1010.8
20260504231545 76 71 0.0 0.0 0.00 0.00 0.00 32 1010.8
20260504231045 76 71 0.0 0.0 0.00 0.00 0.00 31 1010.8
20260504230549 76 53 0.0 0.0 0.00 0.00 0.00 32 1010.7
20260504230044 77 151 0.0 0.0 0.00 0.00 0.00 32 1010.7
20260504225543 77 88 0.0 0.0 0.00 0.00 0.00 32 1010.8
20260504225043 77 157 0.0 0.0 0.00 0.00 0.00 32 1010.8
20260504224543 77 140 0.0 0.0 0.00 0.00 0.00 31 1010.7
20260504224043 77 161 0.0 0.0 0.00 0.00 0.00 31 1010.8
20260504223543 77 161 0.0 0.0 0.00 0.00 0.00 31 1010.7
20260504223050 77 254 0.0 0.0 0.00 0.00 0.00 30 1010.7
20260504222543 77 254 0.0 0.0 0.00 0.00 0.00 31 1010.8
20260504222042 77 261 0.0 0.0 0.00 0.00 0.00 30 1010.8
20260504221542 77 261 0.0 0.0 0.00 0.00 0.00 30 1010.8
20260504221041 77 192 0.0 0.0 0.00 0.00 0.00 30 1010.8
20260504220541 78 108 0.0 0.0 0.00 0.00 0.00 30 1010.8
20260504220044 78 259 0.0 0.0 0.00 0.00 0.00 29 1010.8
20260504215540 78 96 0.0 0.0 0.00 0.00 0.00 28 1010.8
20260504215040 78 163 0.0 0.0 0.00 0.00 0.00 28 1010.9
20260504214546 78 157 0.0 0.0 0.00 0.00 0.00 29 1010.9
20260504214039 78 236 0.0 0.0 0.00 0.00 0.00 27 1010.9
20260504213539 78 128 0.0 0.0 0.00 0.00 0.00 27 1010.8
20260504213042 78 138 0.0 0.0 0.00 0.00 0.00 28 1010.9
20260504212539 79 126 0.0 0.0 0.00 0.00 0.00 29 1010.9
20260504212039 79 126 0.0 0.0 0.00 0.00 0.00 28 1010.9
20260504211538 79 118 0.0 0.0 0.00 0.00 0.00 29 1011.0
20260504211041 80 259 0.0 0.0 0.00 0.00 0.00 28 1011.0
20260504210540 80 154 0.0 0.0 0.00 0.00 0.00 28 1011.0
20260504210036 80 198 0.0 0.0 0.00 0.00 0.00 27 1011.0
20260504205539 81 117 0.0 0.0 0.00 0.00 0.00 25 1011.0
20260504205035 81 206 0.0 0.0 0.00 0.00 0.00 25 1011.0
20260504204535 82 244 0.0 0.0 0.00 0.00 0.00 26 1011.2
20260504204034 82 244 0.0 0.0 0.00 0.00 0.00 24 1011.2
20260504203534 83 171 0.0 0.0 0.00 0.00 0.00 25 1011.3
20260504203035 83 136 0.0 0.0 0.00 0.00 0.00 25 1011.4
20260504202533 83 146 0.0 0.0 0.00 0.00 0.00 25 1011.4
20260504202033 83 142 0.0 0.0 0.00 0.00 0.00 25 1011.5
20260504201532 83 242 0.0 0.0 0.00 0.00 0.00 25 1011.6
20260504201033 83 249 0.0 0.0 0.00 0.00 0.00 25 1011.6
20260504200530 83 159 0.0 0.0 0.00 0.00 0.00 26 1011.6
20260504200031 83 198 0.0 0.0 0.00 0.00 0.00 27 1011.6
20260504195530 83 248 0.0 0.0 0.00 0.00 0.00 26 1011.6
20260504195029 83 246 0.0 0.0 0.00 0.00 0.00 25 1011.7
20260504194531 83 246 0.0 0.0 0.00 0.00 0.00 26 1011.8
20260504194028 83 201 0.0 0.0 0.00 0.00 0.00 25 1011.9
20260504193528 83 88 0.0 0.0 0.00 0.00 0.00 27 1011.9
20260504193028 83 87 0.0 0.0 0.00 0.00 0.00 27 1012.0
20260504192526 83 252 0.0 0.0 0.00 0.00 0.00 26 1012.0
20260504192029 83 252 0.0 0.0 0.00 0.00 0.00 25 1012.2
20260504191526 83 251 0.0 0.0 0.00 0.00 0.00 26 1012.2
20260504191025 83 257 0.0 0.0 0.00 0.00 0.00 26 1012.3
20260504190527 83 238 0.0 0.0 0.00 0.00 0.00 27 1012.3
20260504190023 83 136 0.0 0.0 0.00 0.00 0.00 27 1012.4
20260504185523 82 188 0.0 0.0 0.00 0.00 0.00 27 1012.4
20260504185021 82 201 0.0 0.0 0.00 0.00 0.00 27 1012.5
20260504184520 82 175 0.0 0.0 0.00 0.00 0.00 27 1012.6
20260504184019 82 145 0.0 0.0 0.00 0.00 0.00 29 1012.7
20260504183519 81 191 0.0 0.0 0.00 0.00 0.00 29 1012.6
20260504183017 81 192 0.0 0.0 0.00 0.00 0.00 29 1012.7
20260504182516 81 235 0.0 0.0 0.00 0.00 0.00 29 1012.8
20260504182015 80 246 0.0 0.0 0.00 0.00 0.00 29 1012.9
20260504181523 80 182 0.0 0.0 0.00 0.00 0.00 30 1012.9
20260504181015 80 181 0.0 0.0 0.00 0.00 0.00 28 1013.0
20260504180513 80 164 0.0 0.0 0.00 0.00 0.00 29 1013.2
20260504180011 79 223 0.0 0.0 0.00 0.00 0.00 31 1013.2
20260504175510 79 170 0.0 0.0 0.00 0.00 0.00 31 1013.3
20260504175009 79 150 0.0 0.0 0.00 0.00 0.00 33 1013.3
20260504174507 78 265 0.0 0.0 0.00 0.00 0.00 33 1013.3
20260504174005 78 265 0.0 0.0 0.00 0.00 0.00 30 1013.3
20260504173504 77 146 0.0 0.0 0.00 0.00 0.00 31 1013.3
20260504173003 77 182 0.0 0.0 0.00 0.00 0.00 33 1013.4
20260504172501 77 243 0.0 0.0 0.00 0.00 0.00 32 1013.5
20260504172002 76 236 0.0 0.0 0.00 0.00 0.00 32 1013.5
20260504171612 76 229 0.0 0.0 0.00 0.00 0.00 34 1013.4
20260504171058 76 229 0.0 0.0 0.00 0.00 0.00 35 1013.4
20260504170559 76 222 0.0 0.0 0.00 0.00 0.00 33 1013.5
20260504151035 69 244 0.0 0.0 0.00 0.00 0.00 47 1014.9
20260504150534 68 250 0.0 0.0 0.00 0.00 0.00 51 1014.9
20260504141019 60 189 0.0 0.0 0.00 0.00 0.00 71 1015.1
20260504140516 59 189 0.0 0.0 0.00 0.00 0.00 71 1015.1
20260504130506 50 190 0.0 0.0 0.00 0.00 0.00 88 1015.2
20260504120121 45 194 0.0 0.0 0.00 0.00 0.00 86 1014.6
20260504110556 46 194 0.0 0.0 0.00 0.00 0.00 83 1014.9
20260504110105 46 194 0.0 0.0 0.00 0.00 0.00 83 1014.8
20260504100549 47 194 0.0 0.0 0.00 0.00 0.00 82 1014.7
20260504081542 48 194 0.0 0.0 0.00 0.00 0.00 79 1014.2
20260504081041 48 194 0.0 0.0 0.00 0.00 0.00 79 1014.2
20260504080541 48 194 0.0 0.0 0.00 0.00 0.00 79 1014.2
20260504050527 52 194 0.0 0.0 0.00 0.00 0.00 73 1014.6
20260504050020 52 194 0.0 0.0 0.00 0.00 0.00 73 1014.7
20260504045519 52 194 0.0 0.0 0.00 0.00 0.00 73 1014.8
20260504045019 52 194 0.0 0.0 0.00 0.00 0.00 72 1014.8
20260504044519 52 194 0.0 0.0 0.00 0.00 0.00 72 1014.8
20260504044019 52 194 0.0 0.0 0.00 0.00 0.00 72 1014.9
20260504043517 52 194 0.0 0.0 0.00 0.00 0.00 72 1014.9
20260504043016 53 194 0.0 0.0 0.00 0.00 0.00 71 1014.9
20260504042517 53 194 0.0 0.0 0.00 0.00 0.00 71 1015.0
20260504042014 53 194 0.0 0.0 0.00 0.00 0.00 70 1014.9
20260504041514 53 194 0.0 0.0 0.00 0.00 0.00 70 1015.0
20260504041013 53 194 0.0 0.0 0.00 0.00 0.00 70 1015.0
20260504040513 53 194 0.0 0.0 0.00 0.00 0.00 69 1015.1
20260504040011 53 194 0.0 0.0 0.00 0.00 0.00 69 1015.1
20260504035513 54 194 0.0 0.0 0.00 0.00 0.00 69 1015.1
20260504035011 54 194 0.0 0.0 0.00 0.00 0.00 69 1015.1
20260504034519 54 194 0.0 0.0 0.00 0.00 0.00 68 1015.0
20260504034010 54 194 0.0 0.0 0.00 0.00 0.00 68 1015.1
20260504033511 54 194 0.0 0.0 0.00 0.00 0.00 68 1015.1
20260504033020 54 194 0.0 0.0 0.00 0.00 0.00 68 1015.2
20260504032510 55 194 0.0 0.0 0.00 0.00 0.00 67 1015.1
20260504032010 55 194 0.0 0.0 0.00 0.00 0.00 67 1015.1
20260504031510 55 194 0.0 0.0 0.00 0.00 0.00 67 1015.1
20260504031009 55 194 0.0 0.0 0.00 0.00 0.00 66 1015.1
20260504030509 55 194 0.0 0.0 0.00 0.00 0.00 66 1015.1
20260504030009 55 194 0.0 0.0 0.00 0.00 0.00 65 1015.1
20260504025609 55 194 0.0 0.0 0.00 0.00 0.00 65 1015.0
20260504025008 56 194 0.0 0.0 0.00 0.00 0.00 64 1015.0
20260504024523 56 194 0.0 0.0 0.00 0.00 0.00 63 1014.9
20260504024008 56 194 0.0 0.0 0.00 0.00 0.00 63 1014.9
20260504023507 56 194 0.0 0.0 0.00 0.00 0.00 63 1014.8
20260504023007 57 194 0.0 0.0 0.00 0.00 0.00 63 1014.7
20260504022507 57 194 0.0 0.0 0.00 0.00 0.00 63 1014.7
20260504022012 57 194 0.0 0.0 0.00 0.00 0.00 62 1014.7
20260504021506 57 194 0.0 0.0 0.00 0.00 0.00 61 1014.6
20260504021006 58 194 0.0 0.0 0.00 0.00 0.00 60 1014.6
20260504020506 58 194 0.0 0.0 0.00 0.00 0.00 59 1014.5
20260504020007 58 194 0.0 0.0 0.00 0.00 0.00 58 1014.4
20260504015505 58 194 0.0 0.0 0.00 0.00 0.00 58 1014.4
20260504015005 59 194 0.0 0.0 0.00 0.00 0.00 58 1014.3
20260504014506 59 194 0.0 0.0 0.00 0.00 0.00 57 1014.3